User: anonymous   Login
Location: Theydon Bois
(51.6750°N, 0.1050°E)
Time: 16:00:16
(UTC+00:00)
Language:

Cosmos 1818 - Orbit

View from above orbital plane
View from above orbital plane
View from above satellite
View from above satellite

Ground track
Ground track

The orbit data is extracted from the following two-line orbital elements,

1 17369U 87011A   17348.92597748 -.00000114 +00000-0 -51758-5 0  9996
2 17369 065.0114 307.1012 0014283 283.6250 145.5907 14.31429493664213
Epoch (UTC): 14 December 2017 22:13:24
Eccentricity: 0.0014283
inclination: 65.0114°
perigee height: 777 km
apogee height: 797 km
right ascension of ascending node: 307.1012°
argument of perigee: 283.6250°
revolutions per day: 14.31429493
mean anomaly at epoch: 145.5907°
orbit number at epoch: 66421

The dashed part of the orbit path shows where the satellite is in the earth's shadow,  

DLR